Weather in Sarapul

Russia / Udmurt Republic     56°27′41″N   53°48′13″E
temp.,
°C
wind,
m/s
gust,
m/s
humid.,
%
clouds,
%
prec.,
mm/h
press.,
hPa
HPBL,
m
18 april, sun
sun1801:00+4nnw22703 0.0 102211
04:00+3nnw22765 0.0 102218
07:00+4nnw25745 0.0 1022151
10:00+9nne57595 0.0 1022947
13:00+6ne686195 0.0 10241158
16:00+7ne78311 0.0 10251483
19:00+5nne48435 0.0 1026315
22:00+3ene613555 0.0 1029640
19 april, mon
mon1901:00+1ene6125164 0.0 1030561
04:00−1ene5125166 0.0 1032514
07:000ene6114423 0.0 1033866
10:00+3e710270 0.0 10331363
13:00+6e78250 0.0 10331654
16:00+6e67260 0.0 10331741
19:00+4ene48370 0.0 1033260
22:000ene38530 0.0 1035161
20 april, tue
tue2001:00−1e38550 0.0 1035150
04:00−1e25550 0.0 103792
07:00+1ese24450 0.0 1037214
10:00+5ese34290 0.0 10371132
13:00+8se33270 0.0 10361428
16:00+9ese23270 0.0 10341387
19:00+6se22410 0.0 103411
22:00+3ese22480 0.0 103416
21 april, wed
wed2101:00+1ese22530 0.0 103411
04:00+1se22560 0.0 103410
07:00+3ese25505 0.0 1035155
10:00+8sse46356 0.0 1034834
13:00+11s572978 0.0 10331373
16:00+12sse6828100 0.0 10311439
19:00+9sse494199 0.0 1031232
22:00+6se3953100 0.0 1031168
22 april, thu
thu2201:00+5sse31058100 0.0 1031190
04:00+4sse41256100 0.0 1031281
07:00+5s51156100 0.0 1032439
10:00+9s61048100 0.0 1032867
13:00+11s6938100 0.0 10321441
16:00+12s71135100 0.0 10321923
19:00+10s4946100 0.0 1032327
22:00+7wsw2577100 0.0 1033225